Вернуться в каталог

FLOCK 4BE 7

АктивенНаукаSSO
NORAD 60481·PAYLOAD·🇺🇸 United States

Запущен Aug 16, 2024 с Vandenberg Space Force Base

Loading…

Ближайшие Пролёты (ближайшие 24 часа)

TLE

СвежийSource: CelesTrak SupGP

Эпоха: Sep 14, 2026, 18:45 UTC

1 60481C 24149AP  26257.78145833  .00030004  00000+0  65894-3 0  2578
2 60481  97.3709 341.8216 0001352 299.6321 153.4692 15.44042091    15

Отслеживайте FLOCK 4BE 7 в реальном времени с AllMySat

Download on the App Store